Wind_Speed
16 17 18 19 20 20 21 22 24 25 25 26 28 28 30 30 31 31 30 29 29 29 27 25 22 19 15 13 24 24 27 16 13 21 25 26 27 25 9 11 19 21 19 20 25 24 27
16 18 19 20 21 22 24 25 25 27 28 29 29 29 31 30 31 34 34 31 28 26 26 24 21 17 14 17 18 19 20 18 19 23 25 25 14 26 13 15 12 13 24 24 24 25 19
17 18 19 21 23 24 26 27 27 27 28 30 30 32 32 31 32 32 31 30 28 27 24 22 20 18 16 32 12 10 12 14 17 19 16 22 24 12 10 15 20 20 9 10 13 13 10
17 18 19 21 22 24 24 24 24 25 26 27 29 31 33 32 33 34 33 28 29 26 18 12 10 13 11 10 13 26 15 13 14 14 16 15 18 20 20 18 10 5 8 12 9 18 18
19 20 22 23 24 24 25 26 27 27 27 28 30 30 30 31 32 33 30 30 22 16 11 5 1 8 8 6 8 15 17 16 13 13 14 10 9 11 10 9 8 9 9 15 16 18 4
20 22 23 23 24 25 25 25 26 27 29 31 33 35 35 33 33 30 33 26 16 10 11 4 3 5 10 4 5 6 13 16 14 12 8 11 10 7 9 9 13 10 16 16 13 8 9
19 21 22 23 23 23 24 25 27 28 30 31 32 34 35 32 32 25 32 22 15 3 9 11 17 16 6 3 5 6 14 16 16 14 8 17 8 13 17 19 17 17 19 20 15 9 9
21 22 22 22 22 23 24 25 27 29 30 32 33 35 34 32 25 25 22 11 9 12 16 30 32 29 25 17 5 10 16 15 13 13 14 8 18 16 17 18 19 20 22 21 15 15 8
21 22 22 22 24 25 25 25 25 27 30 32 34 34 35 32 16 22 11 15 13 12 8 14 7 6 4 17 13 15 22 15 11 13 17 16 9 22 19 17 18 20 18 15 15 14 13
22 22 22 22 23 24 24 23 25 28 30 32 34 30 33 35 7 20 3 19 15 10 5 4 3 2 3 3 7 15 24 12 8 13 14 15 21 23 17 18 13 20 11 14 14 10 12
22 21 21 24 24 24 24 24 25 26 27 30 32 32 31 27 21 14 14 21 13 5 8 4 5 2 1 6 5 4 7 11 14 10 5 9 8 7 19 27 21 19 8 9 8 11 4
21 22 21 24 23 25 26 24 25 27 25 29 32 33 31 27 21 9 20 14 5 2 8 3 4 0 4 10 4 3 4 6 5 10 16 17 12 3 9 6 9 0 6 3 6 3 7
21 22 21 22 23 25 25 25 26 26 28 30 31 30 27 19 19 18 14 8 3 5 2 4 4 7 11 6 7 9 7 8 8 4 9 9 23 21 9 6 3 4 6 3 4 5 10
22 20 22 23 23 24 24 26 25 26 29 31 31 28 20 11 15 19 13 3 6 5 7 13 15 20 13 9 9 11 8 13 14 14 14 8 12 17 15 21 10 14 17 6 9 7 8
21 20 21 21 22 22 24 25 26 26 28 30 31 28 12 10 15 16 10 4 4 8 11 15 21 14 11 19 18 11 10 13 11 17 17 9 16 8 4 9 15 8 18 23 12 16 4
19 19 20 21 23 21 23 24 26 27 28 30 28 17 5 13 18 15 3 6 10 17 16 14 12 11 14 16 19 18 12 16 17 24 22 7 12 17 7 1 8 10 4 8 9 9 15
19 20 21 22 21 20 22 24 26 26 29 30 16 9 8 19 18 5 2 4 13 20 21 11 19 21 19 18 14 15 9 17 18 18 20 15 7 8 8 4 10 6 6 5 6 10 3
19 18 19 19 18 21 21 22 23 25 28 28 11 4 13 19 4 4 4 13 20 17 20 17 12 10 13 18 17 12 17 9 19 11 14 8 4 5 12 16 8 8 5 8 8 10 6
18 17 18 18 19 20 21 21 20 22 25 22 11 6 9 14 4 7 13 15 8 17 15 16 12 15 14 18 12 7 10 5 7 4 6 5 3 5 10 7 1 4 6 9 9 4 11
15 16 16 17 18 19 19 20 19 20 21 16 7 4 6 6 10 12 12 12 18 18 14 18 17 15 12 11 13 8 16 10 19 14 22 10 3 5 3 8 7 9 17 14 6 5 1
14 15 15 16 17 17 17 17 18 20 19 9 7 3 4 4 9 12 13 11 16 16 16 14 7 11 17 7 12 12 13 15 16 19 6 0 8 6 8 8 9 9 11 5 4 8 7
15 15 16 17 17 17 17 17 18 18 16 9 6 4 5 16 14 11 11 7 15 17 13 13 13 21 11 6 11 18 13 12 11 9 7 3 7 13 5 12 11 7 7 12 9 12 10
15 15 16 16 16 17 17 17 17 16 15 5 7 8 7 8 7 6 6 18 18 18 8 24 17 16 13 13 17 24 26 28 20 15 17 6 3 3 5 3 4 1 15 10 13 17 6
15 16 17 17 18 18 18 17 16 14 11 10 8 9 5 5 5 9 18 17 18 20 18 19 20 7 10 26 29 21 25 24 16 16 12 10 6 6 2 1 2 5 14 17 20 17 16
15 16 18 18 19 18 18 17 15 15 13 10 10 8 5 4 10 14 15 14 21 21 8 15 15 17 21 12 5 7 6 3 2 6 5 9 3 3 1 1 6 5 10 8 8 11 17
17 19 19 20 21 22 21 19 16 15 13 14 13 12 12 6 5 16 11 11 6 9 8 10 15 18 12 2 2 3 3 3 4 0 4 4 5 2 4 2 2 3 17 17 6 3 15
19 19 20 20 20 21 20 19 17 17 17 16 17 15 14 8 13 5 5 6 7 8 5 11 16 9 2 2 2 3 3 1 1 4 6 3 5 2 4 2 4 12 17 15 1 4 14
19 20 19 18 19 22 22 20 20 21 20 15 18 13 18 11 17 16 7 4 6 4 3 13 12 5 4 3 3 4 3 5 4 4 4 5 5 4 4 4 2 28 7 6 6 14 16
20 19 18 18 20 23 24 24 25 21 19 13 16 11 13 16 9 11 4 4 5 5 7 6 6 9 7 3 4 4 3 6 7 3 7 4 3 2 5 3 7 15 17 15 13 13 17
Wind_Direction
353 353 352 349 349 345 341 341 338 337 334 333 332 330 331 332 329 324 321 319 315 310 305 301 293 285 280 248 246 268 275 266 227 189 185 200 212 200 217 216 233 222 244 253 252 255 258
355 355 354 351 348 347 345 341 339 339 338 339 338 338 337 337 332 327 324 323 316 309 304 298 288 277 261 251 258 254 261 258 234 201 201 205 215 219 258 250 246 257 236 245 256 266 264
359 356 353 353 350 347 344 343 343 343 343 343 343 342 341 342 337 334 332 330 320 314 306 295 273 264 246 245 248 246 258 247 212 214 209 212 226 244 250 263 287 288 279 291 253 257 257
355 352 351 350 348 346 344 343 344 345 345 344 341 342 340 342 339 336 334 337 322 315 315 310 261 227 244 263 266 251 224 224 213 219 219 225 236 258 263 273 284 288 259 253 246 236 234
352 350 350 349 351 349 347 348 348 348 348 346 348 346 343 343 339 337 339 339 322 319 330 319 121 185 257 271 264 240 216 213 212 218 218 226 224 231 240 230 273 229 254 236 251 254 254
349 347 347 347 349 350 349 350 349 350 350 352 351 349 345 348 344 342 343 346 345 335 357 348 236 220 242 232 214 206 200 200 202 198 200 210 205 216 208 203 221 218 238 240 244 242 179
345 344 345 347 349 350 350 351 351 352 349 350 349 348 345 349 345 347 349 10 1 337 299 256 276 257 291 227 263 207 187 185 189 191 203 196 207 216 218 223 242 264 280 281 278 286 179
347 346 348 351 350 348 346 346 346 346 347 347 347 348 344 345 346 356 1 38 21 312 297 289 274 262 254 258 275 205 174 184 195 205 213 223 225 221 224 229 238 244 252 259 273 276 204
347 347 349 348 347 347 347 347 344 342 342 342 343 348 346 344 347 0 10 9 340 322 277 293 254 273 247 211 227 214 183 201 193 213 220 227 220 216 235 248 254 252 253 262 259 290 282
345 347 346 346 345 344 343 342 343 341 344 344 339 350 346 344 357 354 21 330 339 324 295 210 217 211 150 195 235 224 218 210 219 240 237 253 245 244 229 225 225 253 247 263 259 256 257
345 345 342 344 344 342 343 344 341 337 341 338 336 342 345 347 332 326 307 322 337 341 325 96 113 169 162 225 343 219 211 225 244 235 220 234 211 221 234 240 233 249 227 247 272 254 282
341 342 343 344 344 344 343 342 340 342 337 330 332 336 343 345 342 303 304 321 3 253 250 107 114 168 227 209 237 137 207 236 302 264 264 252 267 274 229 254 234 132 180 211 259 212 245
338 343 343 340 343 343 346 345 344 345 340 335 335 336 343 348 321 330 336 355 257 210 277 57 352 347 322 270 236 186 199 195 209 204 215 237 239 241 200 256 211 214 163 193 228 202 236
340 342 344 345 346 348 345 345 345 344 339 336 339 343 360 334 9 354 354 259 230 310 4 7 348 311 277 294 274 268 217 237 224 255 281 272 270 207 206 206 189 207 189 193 215 194 235
343 347 348 348 347 346 345 350 350 347 345 342 346 347 3 348 358 2 323 247 324 24 354 339 333 331 336 340 344 332 294 283 280 269 261 267 260 229 143 187 202 227 211 228 274 282 293
345 347 346 346 355 0 1 359 357 354 349 348 354 360 35 343 338 351 302 280 329 357 352 343 322 328 335 325 327 334 330 329 9 343 346 315 308 273 311 199 242 240 315 232 226 238 245
350 349 349 349 356 354 353 351 352 349 350 357 358 354 341 329 317 315 303 326 329 334 335 336 309 304 313 325 340 324 308 317 26 341 318 315 271 296 303 171 263 245 248 242 271 231 256
355 353 353 354 355 350 351 347 347 348 350 0 355 349 341 355 334 47 330 324 324 329 318 304 319 311 310 311 309 307 294 305 353 341 331 345 304 305 298 302 348 341 337 304 258 256 242
0 2 4 3 358 348 346 346 345 347 355 358 348 307 341 8 12 346 330 329 327 320 314 315 310 303 300 303 303 307 306 296 353 345 337 325 339 331 312 248 167 263 311 258 273 262 215
5 4 2 357 353 352 354 352 350 350 358 6 2 341 347 334 349 349 329 313 321 319 315 326 308 302 297 299 295 286 300 298 333 309 301 282 263 239 295 284 276 307 323 319 315 274 270
10 8 5 2 2 359 357 355 354 357 2 24 1 13 357 317 330 314 308 314 314 323 335 325 308 320 305 296 303 293 311 311 308 298 313 39 267 247 258 257 263 271 277 313 322 339 306
13 12 8 5 1 357 355 353 352 354 4 17 348 347 315 293 293 310 318 314 327 326 336 312 329 319 314 296 297 299 317 305 276 297 286 339 276 287 261 253 257 276 12 353 40 347 38
15 11 5 359 356 356 354 353 353 355 1 1 326 314 300 284 305 314 316 327 315 328 302 324 310 314 316 308 312 293 281 271 257 267 280 250 248 288 265 301 38 359 356 352 81 26 357
6 360 356 354 354 351 349 348 346 347 354 328 310 304 272 283 311 302 315 323 319 316 302 305 309 299 296 316 312 295 261 257 257 261 251 255 258 273 239 35 121 92 39 71 76 39 28
355 351 350 348 343 343 341 341 344 345 342 319 302 285 262 273 299 301 330 320 317 317 319 304 332 316 310 318 306 324 306 339 29 23 338 227 230 260 212 131 122 48 25 354 0 43 20
349 346 342 340 336 336 333 330 328 325 317 308 304 274 260 267 222 333 314 327 329 321 311 289 328 330 315 273 278 275 295 301 335 319 11 29 23 5 5 46 249 8 330 330 291 87 11
351 346 344 341 338 345 350 348 341 335 327 301 280 277 262 251 285 303 298 312 313 305 286 318 334 332 339 280 270 257 275 234 356 41 343 6 351 340 336 69 87 335 317 307 186 7 7
348 348 351 353 355 349 349 346 339 335 331 319 299 277 267 264 277 286 281 302 326 354 313 329 328 18 315 309 301 351 327 353 80 36 3 46 333 21 317 39 300 350 20 60 345 22 15
351 347 345 345 344 345 345 338 336 336 335 326 307 300 267 258 276 282 283 6 2 332 305 306 283 300 341 334 4 317 322 357 15 73 23 42 1 19 26 79 60 37 46 39 31 23 12
Height
1536 1533 1530 1527 1524 1520 1517 1514 1510 1506 1502 1497 1493 1488 1484 1480 1475 1470 1466 1463 1459 1455 1452 1450 1448 1448 1448 1446 1433 1435 1432 1434 1434 1435 1437 1442 1444 1446 1442 1438 1441 1438 1432 1432 1431 1431 1430
1536 1533 1530 1527 1523 1520 1516 1512 1508 1504 1500 1495 1491 1486 1482 1477 1471 1466 1462 1457 1452 1448 1445 1443 1443 1442 1442 1438 1429 1428 1428 1429 1431 1433 1435 1439 1439 1441 1438 1435 1435 1428 1429 1427 1428 1426 1427
1536 1532 1529 1526 1522 1519 1515 1511 1506 1502 1498 1493 1487 1482 1476 1472 1466 1461 1456 1451 1446 1441 1438 1436 1436 1435 1435 1420 1425 1424 1424 1425 1428 1429 1432 1436 1438 1439 1435 1436 1432 1428 1428 1425 1423 1422 1423
1535 1532 1529 1525 1522 1518 1514 1510 1505 1501 1496 1491 1486 1481 1476 1470 1463 1456 1450 1445 1439 1434 1430 1429 1428 1430 1425 1418 1418 1420 1423 1424 1425 1428 1431 1434 1436 1435 1434 1432 1430 1431 1427 1433 1419 1416 1413
1535 1532 1528 1525 1521 1517 1513 1508 1504 1499 1494 1489 1484 1479 1474 1469 1462 1454 1447 1441 1434 1430 1428 1427 1427 1427 1421 1415 1415 1416 1419 1422 1425 1426 1428 1430 1431 1432 1433 1435 1437 1430 1430 1425 1421 1409 1408
1534 1531 1527 1523 1519 1515 1511 1506 1502 1497 1492 1488 1482 1476 1471 1466 1459 1452 1445 1438 1432 1429 1427 1427 1428 1430 1416 1414 1412 1412 1414 1420 1424 1425 1427 1428 1428 1427 1427 1429 1428 1425 1422 1414 1412 1402 1403
1533 1530 1526 1522 1517 1513 1509 1505 1500 1496 1492 1487 1481 1475 1469 1464 1457 1450 1442 1435 1435 1433 1430 1428 1421 1414 1412 1411 1411 1411 1413 1416 1419 1423 1425 1423 1425 1419 1418 1416 1413 1412 1410 1407 1401 1397 1401
1531 1528 1524 1520 1516 1512 1508 1504 1500 1495 1491 1485 1480 1474 1467 1461 1456 1452 1448 1445 1449 1448 1428 1414 1407 1407 1408 1410 1410 1409 1411 1414 1414 1413 1416 1417 1411 1408 1406 1408 1407 1407 1407 1403 1398 1395 1402
1529 1526 1522 1519 1514 1510 1506 1503 1499 1495 1490 1484 1478 1473 1466 1460 1456 1454 1453 1451 1449 1446 1437 1407 1405 1404 1404 1406 1407 1405 1406 1406 1406 1408 1406 1405 1393 1398 1401 1402 1403 1398 1399 1399 1399 1398 1392
1528 1524 1521 1516 1512 1508 1504 1501 1497 1493 1488 1482 1476 1472 1466 1457 1457 1453 1453 1450 1447 1445 1437 1405 1404 1404 1405 1406 1404 1400 1401 1404 1402 1400 1400 1395 1388 1386 1390 1390 1394 1394 1391 1393 1394 1404 1406
1526 1522 1519 1514 1510 1506 1502 1499 1495 1491 1486 1480 1475 1471 1466 1460 1456 1453 1453 1448 1446 1447 1438 1399 1404 1405 1405 1406 1404 1401 1401 1401 1398 1395 1395 1385 1382 1383 1382 1375 1381 1379 1384 1390 1393 1395 1399
1524 1520 1517 1513 1509 1505 1501 1497 1492 1488 1483 1478 1473 1468 1464 1459 1456 1454 1448 1445 1447 1446 1433 1399 1404 1403 1404 1401 1400 1400 1400 1403 1401 1398 1392 1383 1379 1382 1380 1376 1376 1379 1384 1388 1391 1394 1405
1522 1518 1515 1511 1507 1503 1499 1495 1491 1486 1481 1476 1471 1466 1461 1458 1456 1451 1447 1446 1444 1436 1393 1405 1409 1406 1404 1399 1391 1393 1397 1397 1395 1403 1391 1377 1372 1371 1374 1380 1378 1384 1390 1404 1409 1405 1385
1520 1516 1513 1510 1506 1502 1498 1493 1489 1485 1479 1474 1469 1463 1458 1458 1455 1451 1448 1448 1442 1408 1415 1415 1416 1410 1406 1399 1392 1386 1386 1390 1390 1390 1384 1383 1371 1360 1359 1364 1367 1371 1372 1383 1372 1376 1367
1518 1515 1512 1509 1505 1502 1498 1493 1488 1483 1478 1472 1466 1459 1457 1458 1454 1452 1452 1445 1428 1431 1433 1428 1417 1408 1401 1400 1404 1395 1389 1385 1383 1381 1383 1372 1356 1348 1347 1352 1362 1360 1367 1348 1360 1352 1367
1517 1514 1511 1508 1505 1501 1497 1493 1488 1483 1478 1472 1466 1461 1460 1460 1456 1455 1454 1444 1440 1439 1438 1436 1434 1426 1434 1429 1416 1415 1411 1391 1401 1398 1387 1372 1370 1359 1353 1352 1356 1358 1357 1367 1364 1367 1362
1516 1513 1511 1507 1504 1501 1497 1493 1489 1484 1478 1472 1467 1463 1462 1459 1456 1456 1455 1448 1446 1444 1442 1440 1439 1433 1430 1429 1429 1423 1410 1405 1410 1405 1400 1389 1376 1368 1362 1363 1367 1362 1361 1359 1357 1353 1356
1515 1513 1509 1506 1503 1500 1497 1493 1488 1484 1478 1473 1470 1467 1462 1459 1458 1456 1456 1453 1450 1446 1444 1441 1436 1433 1433 1429 1425 1424 1417 1413 1413 1413 1408 1394 1387 1380 1374 1364 1366 1368 1364 1365 1362 1357 1350
1514 1511 1508 1505 1503 1500 1496 1492 1488 1484 1480 1475 1474 1471 1464 1463 1462 1461 1459 1457 1456 1448 1443 1439 1437 1434 1430 1429 1428 1418 1416 1411 1410 1410 1410 1404 1396 1392 1373 1357 1364 1375 1376 1372 1371 1367 1356
1513 1510 1507 1504 1501 1499 1495 1492 1488 1485 1481 1477 1475 1473 1466 1464 1464 1465 1461 1455 1451 1447 1442 1436 1434 1428 1426 1425 1421 1422 1413 1407 1406 1407 1406 1404 1395 1395 1392 1395 1392 1385 1378 1376 1376 1366 1359
1512 1510 1507 1504 1501 1498 1495 1492 1489 1485 1481 1480 1480 1477 1476 1470 1465 1464 1460 1456 1451 1445 1441 1438 1432 1430 1427 1424 1420 1413 1409 1407 1401 1399 1397 1396 1393 1388 1384 1385 1386 1384 1385 1379 1378 1376 1370
1513 1511 1508 1505 1502 1499 1496 1492 1489 1484 1482 1482 1483 1483 1478 1473 1469 1463 1458 1456 1448 1445 1445 1436 1436 1427 1424 1425 1423 1417 1412 1405 1404 1395 1395 1397 1399 1391 1388 1379 1377 1379 1386 1393 1391 1401 1387
1513 1510 1508 1506 1503 1499 1495 1492 1488 1485 1482 1482 1483 1482 1480 1471 1467 1464 1460 1455 1450 1447 1438 1440 1433 1428 1423 1419 1416 1412 1408 1400 1398 1397 1395 1397 1395 1387 1383 1373 1377 1386 1407 1401 1417 1419 1411
1513 1510 1508 1505 1501 1498 1495 1491 1487 1484 1483 1482 1482 1481 1478 1470 1468 1464 1460 1455 1449 1445 1441 1433 1430 1427 1420 1415 1408 1401 1393 1387 1388 1386 1391 1389 1391 1386 1378 1387 1409 1424 1429 1427 1430 1438 1435
1512 1509 1506 1503 1500 1496 1493 1490 1487 1484 1483 1481 1479 1478 1475 1468 1464 1458 1457 1453 1445 1441 1436 1431 1427 1424 1419 1414 1411 1405 1391 1388 1385 1386 1385 1385 1387 1381 1387 1391 1407 1423 1443 1447 1443 1445 1446
1511 1507 1505 1502 1498 1494 1491 1487 1483 1481 1479 1477 1476 1476 1472 1468 1459 1456 1454 1452 1449 1441 1433 1429 1424 1421 1417 1415 1413 1416 1400 1391 1389 1385 1386 1385 1386 1388 1394 1397 1408 1455 1450 1446 1444 1452 1458
1509 1507 1504 1500 1497 1493 1488 1484 1481 1478 1475 1473 1470 1469 1466 1461 1455 1455 1454 1452 1450 1446 1440 1430 1427 1419 1417 1415 1413 1407 1397 1391 1387 1402 1403 1394 1408 1399 1402 1395 1454 1462 1451 1441 1433 1465 1463
1508 1505 1502 1499 1495 1491 1486 1482 1479 1475 1471 1467 1465 1465 1463 1456 1453 1452 1451 1451 1449 1448 1445 1437 1431 1423 1421 1415 1407 1405 1403 1395 1414 1435 1435 1443 1445 1443 1435 1427 1438 1461 1449 1457 1472 1467 1465
1507 1504 1501 1497 1493 1488 1484 1480 1476 1472 1469 1464 1460 1459 1458 1455 1452 1449 1448 1449 1449 1449 1448 1444 1441 1437 1432 1426 1426 1421 1414 1419 1412 1429 1448 1453 1464 1463 1467 1472 1476 1474 1473 1473 1472 1470 1468